| time (UTC) | temp C | wind direction | speed KPH | gust KPH | rain 1hr cm | rain 24hr cm | rain mn cm | humidity % | barometer mb |
| 20260906130029 | 23 | 146 | 0.0 | 0.0 | 0.00 | 0.41 | 0.00 | 76 | 1010.8 |
| 20260906124528 | 23 | 49 | 0.0 | 0.0 | 0.00 | 0.41 | 0.00 | 78 | 1010.8 |
| 20260906123027 | 22 | 162 | 0.0 | 0.0 | 0.00 | 0.41 | 0.00 | 85 | 1010.8 |
| 20260906121629 | 21 | 248 | 0.0 | 0.0 | 0.00 | 0.41 | 0.00 | 86 | 1010.6 |
| 20260906120026 | 22 | 218 | 0.0 | 0.0 | 0.00 | 0.41 | 0.00 | 85 | 1010.5 |
| 20260906114528 | 22 | 235 | 0.0 | 0.0 | 0.00 | 0.41 | 0.00 | 83 | 1010.2 |
| 20260906113034 | 22 | 236 | 0.0 | 0.0 | 0.00 | 0.41 | 0.00 | 81 | 1010.1 |
| 20260906111521 | 22 | 209 | 0.0 | 0.0 | 0.00 | 0.41 | 0.00 | 83 | 1009.7 |
| 20260906110020 | 22 | 182 | 0.0 | 0.0 | 0.00 | 0.41 | 0.00 | 86 | 1009.7 |
| 20260906104519 | 22 | 236 | 0.0 | 0.0 | 0.00 | 0.41 | 0.00 | 88 | 1009.5 |
| 20260906103018 | 22 | 225 | 0.0 | 0.0 | 0.00 | 0.41 | 0.00 | 87 | 1009.4 |
| 20260906101517 | 22 | 240 | 0.0 | 0.0 | 0.00 | 0.41 | 0.00 | 86 | 1009.6 |
| 20260906100015 | 22 | 290 | 0.0 | 0.0 | 0.00 | 0.41 | 0.00 | 85 | 1009.5 |
| 20260906094514 | 22 | 236 | 0.0 | 0.0 | 0.00 | 0.41 | 0.00 | 85 | 1009.9 |
| 20260906093038 | 23 | 236 | 0.0 | 0.0 | 0.00 | 0.41 | 0.00 | 85 | 1010.2 |
| 20260906091514 | 23 | 227 | 0.0 | 0.0 | 0.00 | 0.41 | 0.00 | 84 | 1010.3 |
| 20260906090018 | 23 | 227 | 0.0 | 0.0 | 0.00 | 0.41 | 0.00 | 85 | 1010.3 |
| 20260906084517 | 23 | 230 | 0.0 | 0.0 | 0.00 | 0.41 | 0.00 | 83 | 1010.4 |
| 20260906083018 | 23 | 207 | 0.0 | 0.0 | 0.00 | 0.41 | 0.00 | 82 | 1010.2 |
| 20260906081510 | 23 | 16 | 0.0 | 0.0 | 0.00 | 0.41 | 0.00 | 82 | 1010.1 |
| 20260906080011 | 23 | 224 | 0.0 | 0.0 | 0.00 | 0.41 | 0.00 | 81 | 1010.2 |
| 20260906074523 | 23 | 69 | 0.0 | 0.0 | 0.00 | 0.41 | 0.00 | 80 | 1009.6 |
| 20260906073010 | 23 | 280 | 0.0 | 0.0 | 0.00 | 0.41 | 0.00 | 81 | 1009.6 |
| 20260906071505 | 23 | 232 | 0.0 | 0.0 | 0.00 | 0.41 | 0.00 | 80 | 1009.8 |
| 20260906070007 | 23 | 209 | 0.0 | 0.0 | 0.00 | 0.41 | 0.00 | 79 | 1010.2 |
| 20260906064504 | 23 | 43 | 0.0 | 0.0 | 0.00 | 0.41 | 0.00 | 80 | 1010.7 |
| 20260906063002 | 23 | 102 | 0.0 | 0.0 | 0.00 | 0.41 | 0.00 | 82 | 1010.4 |
| 20260906061503 | 23 | 98 | 0.0 | 0.0 | 0.00 | 0.41 | 0.00 | 82 | 1010.4 |
| 20260906060005 | 23 | 209 | 0.0 | 0.0 | 0.00 | 0.41 | 0.00 | 83 | 1010.1 |
| 20260906054606 | 23 | 220 | 0.0 | 0.0 | 0.00 | 0.41 | 0.00 | 82 | 1009.9 |
| 20260906054500 | 23 | 238 | 0.0 | 0.0 | 0.00 | 0.41 | 0.00 | 82 | 1009.8 |
| 20260906053118 | 23 | 154 | 0.0 | 0.0 | 0.00 | 0.41 | 0.00 | 81 | 1009.9 |
| 20260906051557 | 23 | 33 | 0.0 | 0.0 | 0.00 | 0.41 | 0.00 | 82 | 1009.9 |
| 20260906050055 | 23 | 225 | 0.0 | 0.0 | 0.00 | 0.41 | 0.00 | 82 | 1010.1 |
| 20260906044552 | 22 | 221 | 0.0 | 0.0 | 0.00 | 0.41 | 0.00 | 83 | 1010.2 |
| 20260906043053 | 22 | 196 | 0.0 | 0.0 | 0.00 | 0.41 | 0.00 | 84 | 1010.4 |
| 20260906041554 | 22 | 239 | 0.0 | 0.0 | 0.00 | 0.41 | 0.00 | 84 | 1010.4 |
| 20260906040046 | 22 | 218 | 0.0 | 0.0 | 0.00 | 0.41 | 0.00 | 85 | 1010.5 |
| 20260906034545 | 23 | 232 | 0.0 | 0.0 | 0.00 | 0.41 | 0.41 | 84 | 1010.4 |
| 20260906033045 | 23 | 222 | 0.0 | 0.0 | 0.00 | 0.41 | 0.41 | 83 | 1010.7 |
| 20260906031542 | 23 | 236 | 0.0 | 0.0 | 0.00 | 0.41 | 0.41 | 83 | 1010.5 |
| 20260906030048 | 23 | 240 | 0.0 | 0.0 | 0.00 | 0.41 | 0.41 | 83 | 1010.4 |
| 20260906024547 | 23 | 249 | 0.0 | 0.0 | 0.00 | 0.41 | 0.41 | 82 | 1010.5 |
| 20260906023039 | 23 | 43 | 0.0 | 0.0 | 0.00 | 0.41 | 0.41 | 82 | 1010.0 |
| 20260906021538 | 23 | 342 | 0.0 | 0.0 | 0.00 | 0.41 | 0.41 | 80 | 1009.8 |
| 20260906020038 | 24 | 280 | 0.0 | 0.0 | 0.00 | 0.41 | 0.41 | 78 | 1009.9 |
| 20260906014545 | 24 | 231 | 0.0 | 0.0 | 0.00 | 0.41 | 0.41 | 77 | 1009.7 |
| 20260906013037 | 24 | 240 | 0.0 | 0.0 | 0.00 | 0.41 | 0.41 | 80 | 1009.6 |
| 20260906011551 | 24 | 238 | 0.0 | 0.0 | 0.00 | 0.41 | 0.41 | 80 | 1009.5 |
| 20260906010058 | 24 | 217 | 0.0 | 0.0 | 0.00 | 0.41 | 0.41 | 84 | 1009.3 |
| 20260906004538 | 25 | 228 | 0.0 | 0.0 | 0.00 | 0.41 | 0.41 | 85 | 1009.2 |
| 20260906003035 | 25 | 215 | 0.0 | 0.0 | 0.00 | 0.41 | 0.41 | 83 | 1009.2 |
| 20260906001555 | 26 | 224 | 0.0 | 0.0 | 0.00 | 0.41 | 0.41 | 79 | 1009.1 |
| 20260906000034 | 26 | 303 | 0.0 | 0.0 | 0.00 | 0.41 | 0.41 | 78 | 1009.1 |
| 20260905234534 | 26 | 281 | 0.0 | 0.0 | 0.00 | 0.41 | 0.41 | 79 | 1009.4 |
| 20260905233033 | 26 | 246 | 0.0 | 0.0 | 0.00 | 0.41 | 0.41 | 81 | 1009.3 |
| 20260905231540 | 26 | 222 | 0.0 | 0.0 | 0.00 | 0.41 | 0.41 | 79 | 1009.1 |
| 20260905230037 | 26 | 259 | 0.0 | 0.0 | 0.00 | 0.41 | 0.41 | 81 | 1008.7 |
| 20260905224541 | 26 | 230 | 0.0 | 0.0 | 0.00 | 0.41 | 0.41 | 80 | 1008.9 |
| 20260905223037 | 26 | 230 | 0.0 | 0.0 | 0.00 | 0.41 | 0.41 | 78 | 1008.9 |
| 20260905221529 | 26 | 242 | 0.0 | 0.0 | 0.00 | 0.41 | 0.41 | 77 | 1008.8 |
| 20260905220028 | 27 | 240 | 0.0 | 0.0 | 0.00 | 0.41 | 0.41 | 75 | 1009.3 |
| 20260905214525 | 28 | 358 | 0.0 | 0.0 | 0.00 | 0.41 | 0.41 | 72 | 1009.6 |
| 20260905213025 | 29 | 327 | 0.0 | 0.0 | 0.00 | 0.41 | 0.41 | 71 | 1009.5 |
| 20260905211537 | 29 | 259 | 0.0 | 0.0 | 0.08 | 0.41 | 0.41 | 73 | 1009.7 |
| 20260905210024 | 28 | 303 | 0.0 | 0.0 | 0.41 | 0.41 | 0.41 | 78 | 1009.4 |
| 20260905204526 | 27 | 247 | 0.0 | 0.0 | 0.41 | 0.41 | 0.41 | 84 | 1009.6 |
| 20260905203036 | 26 | 186 | 0.0 | 0.0 | 0.41 | 0.41 | 0.41 | 85 | 1009.4 |
| 20260905201527 | 28 | 275 | 0.0 | 0.0 | 0.30 | 0.30 | 0.30 | 75 | 1010.0 |
| 20260905200020 | 31 | 245 | 0.0 | 0.0 | 0.00 | 0.00 | 0.00 | 61 | 1009.7 |
| 20260905194518 | 33 | 26 | 0.0 | 0.0 | 0.00 | 0.00 | 0.00 | 61 | 1009.8 |
| 20260905193023 | 31 | 2 | 0.0 | 0.0 | 0.00 | 0.00 | 0.00 | 60 | 1009.9 |
| 20260905191524 | 31 | 131 | 0.0 | 0.0 | 0.00 | 0.00 | 0.00 | 65 | 1010.0 |
| 20260905190013 | 31 | 337 | 0.0 | 0.0 | 0.00 | 0.00 | 0.00 | 65 | 1010.2 |
| 20260905184512 | 30 | 313 | 0.0 | 0.0 | 0.00 | 0.00 | 0.00 | 71 | 1010.3 |
| 20260905183012 | 30 | 313 | 0.0 | 0.0 | 0.00 | 0.00 | 0.00 | 68 | 1010.4 |
| 20260905181510 | 30 | 308 | 0.0 | 0.0 | 0.00 | 0.00 | 0.00 | 69 | 1010.7 |
| 20260905180008 | 31 | 33 | 0.0 | 0.0 | 0.00 | 0.00 | 0.00 | 63 | 1010.7 |
| 20260905174508 | 31 | 188 | 0.0 | 0.0 | 0.00 | 0.00 | 0.00 | 62 | 1010.7 |
| 20260905173006 | 32 | 100 | 0.0 | 0.0 | 0.00 | 0.00 | 0.00 | 65 | 1010.7 |
| 20260905171503 | 31 | 238 | 0.0 | 0.0 | 0.00 | 0.00 | 0.00 | 66 | 1010.9 |
| 20260905170001 | 30 | 238 | 0.0 | 0.0 | 0.00 | 0.00 | 0.00 | 66 | 1011.1 |
| 20260905164606 | 30 | 188 | 0.0 | 0.0 | 0.00 | 0.00 | 0.00 | 67 | 1011.2 |
| 20260905163059 | 30 | 160 | 0.0 | 0.0 | 0.00 | 0.00 | 0.00 | 68 | 1011.4 |
| 20260905161555 | 29 | 33 | 0.0 | 0.0 | 0.00 | 0.00 | 0.00 | 73 | 1011.6 |
| 20260905160051 | 28 | 213 | 0.0 | 0.0 | 0.00 | 0.00 | 0.00 | 75 | 1011.6 |
| 20260905154549 | 28 | 105 | 0.0 | 0.0 | 0.00 | 0.00 | 0.00 | 78 | 1011.7 |
| 20260905153046 | 27 | 143 | 0.0 | 0.0 | 0.00 | 0.00 | 0.00 | 79 | 1011.9 |
| 20260905151548 | 27 | 143 | 0.0 | 0.0 | 0.00 | 0.00 | 0.00 | 81 | 1011.9 |
| 20260905150050 | 27 | 218 | 0.0 | 0.0 | 0.00 | 0.00 | 0.00 | 80 | 1011.9 |
| 20260905144541 | 27 | 218 | 0.0 | 0.0 | 0.00 | 0.00 | 0.00 | 77 | 1012.0 |
| 20260905143040 | 26 | 218 | 0.0 | 0.0 | 0.00 | 0.00 | 0.00 | 78 | 1012.1 |
| 20260905141538 | 26 | 179 | 0.0 | 0.0 | 0.00 | 0.00 | 0.00 | 78 | 1012.2 |
| 20260905140043 | 26 | 305 | 0.0 | 0.0 | 0.00 | 0.00 | 0.00 | 78 | 1012.1 |
| 20260905134546 | 26 | 229 | 0.0 | 0.0 | 0.00 | 0.00 | 0.00 | 78 | 1012.2 |
| 20260905133035 | 26 | 229 | 0.0 | 0.0 | 0.00 | 0.00 | 0.00 | 77 | 1012.3 |
| 20260905131534 | 26 | 229 | 0.0 | 0.0 | 0.00 | 0.00 | 0.00 | 79 | 1012.5 |